Volver al catálogo

STARLINK-36680

ActivoComunicacionesVLEO
NORAD 68721·PAYLOAD·🇺🇸 United States

Lanzado Apr 14, 2026 desde Cape Canaveral Space Force Station

Loading…

Próximos Pases (próximas 24 horas)

TLE

ActualizadoSource: CelesTrak SupGP

Época: Sep 14, 2026, 20:56 UTC

1 68721C 26081Y   26257.87270833  .00042084  00000+0  12434-2 0  2571
2 68721  53.1584 231.8534 0001466  98.3467  17.1067 15.34368011    17

Sigue STARLINK-36680 en tiempo real con AllMySat

Download on the App Store